Regional Weather Roundup
Issued by NWS

Home | Current Version | Previous Version | Graphics & Text | Print | Product List | Glossary On
Versions: 1 2 3 4 5 6 7 8 9 10 11 12 13 14 15 16 17 18 19 20 21 22 23 24 25 26 27 28 29 30 31 32 33 34 35 36 37 38 39 40 41 42 43 44 45 46 47 48 49 50
000
ASUS43 KTOP 041959
RWRKS

WEATHER ROUNDUP FOR KANSAS
NATIONAL WEATHER SERVICE GOODLAND KS
300 PM CDT TUE AUG 04 2015

NOTE:  "FAIR" INDICATES FEW OR NO CLOUDS BELOW 12,000 FEET WITH NO
SIGNIFICANT WEATHER AND/OR OBSTRUCTIONS TO VISIBILITY.

KSZ001>006-013>018-027>032-041>047-042100-
NORTHWEST KANSAS

CITY           SKY/WX    TMP DP  RH WIND       PRES   REMARKS
GOODLAND       MOSUNNY   88  56  33 MISG      29.96R HAZE
HAYS           SUNNY     88  64  45 S20G28    29.91R
HILL CITY      CLOUDY    89  60  37 VRB7      29.91R
RUSSELL        MOSUNNY   87  65  47 S17       29.91S
$$

KSZ061>065-074>080-084>089-042100-
SOUTHWEST KANSAS

CITY           SKY/WX    TMP DP  RH WIND       PRES   REMARKS
DODGE CITY     MOSUNNY   86  64  47 S14G23    29.93F
ELKHART          N/A     89  66  46 SE13        N/A
GARDEN CITY    MOSUNNY   87  66  49 S14G20    29.91F
GREAT BEND     MOSUNNY   84  64  51 S21G29    29.92S
LIBERAL        SUNNY     88  64  45 S9G17     29.93F
$$

KSZ066>073-081>083-090>101-042100-
SOUTHEAST KANSAS

CITY           SKY/WX    TMP DP  RH WIND       PRES   REMARKS
CHANUTE        CLOUDY    79  70  74 SW13G22   30.00S
COFFEYVILLE    RAIN      75  73  93 CALM      30.01F FOG
HUTCHINSON     PTSUNNY   81  68  64 SE14      29.94F
NEWTON         CLOUDY    81  66  61 S16       29.97F
PARSONS        LGT RAIN  76  74  93 S6        30.03S
WICHITA INTL   LGT RAIN  82  70  66 S15       29.95F
WICHITA JABRA  CLOUDY    79  70  74 S14       29.96F
$$

KSZ007>012-019>026-033>040-048>060-102>105-042100-
NORTHEAST KANSAS

CITY           SKY/WX    TMP DP  RH WIND       PRES   REMARKS
CONCORDIA      PTSUNNY   81  71  71 E10G21    29.91S
EMPORIA        LGT RAIN  76  70  82 S15       29.97F
LAWRENCE       CLOUDY    84  73  69 E9        29.94F
MANHATTAN      CLOUDY    77  73  87 CALM      29.92R THUNDER
OLATHE IND     CLOUDY    82  72  71 E13       29.97S
OLATHE EXE     CLOUDY    80  71  74 E14       29.96S
SALINA         CLOUDY    81  71  71 S15       29.92S
TOPEKA BILLARD CLOUDY    86  72  62 E14       29.93F
TOPEKA FORBES  CLOUDY    86  71  60 SE9       29.93F
$$


USA.gov is the U.S. government's official web portal to all federal, state and local government web resources and services.